Retour au catalogue

STARLINK-37171

ActifCommunicationsSSO
NORAD 68665·PAYLOAD·🇺🇸 United States

Lancé Apr 11, 2026 depuis Vandenberg Space Force Base

Loading…

Prochains Passages (prochaines 24 heures)

TLE

FraisSource: CelesTrak SupGP

Époque: Sep 15, 2026, 03:38 UTC

1 68665C 26077D   26258.15187500  .00014597  00000+0  45299-3 0  2588
2 68665  97.2849 128.0687 0002336  97.1954 132.1771 15.33439322    11

Suivez STARLINK-37171 en temps réel avec AllMySat

Download on the App Store